Location: B?ezina
(49.8085°N, 13.6013°E)
Time: 23:34:08
(UTC+00:00)

USA 59 Rocket - Pass Details

Date: 19 May 2025
Orbit: 373 x 1696 km, 63.3° (Epoch: 15 June)

Event Time Altitude Azimuth Distance (km) Brightness Sun altitude
Exits shadow 22:10:07 75° 85° (E) 417 -0.9 -19.3°
Drops below altitude 10° 22:12:54 10° 45° (NE) 1,395 2.3 -19.4°
Sets 22:14:51 0° 44° (NE) 2,247 3.4 -19.4°
